Regional Weather Roundup
Issued by NWS Kansas City/Pleasant Hill, MO

Home | Current Version | Previous Version | Text Only | Print | Product List | Glossary On
Versions: 1 2 3 4 5 6 7 8 9 10 11 12 13 14 15 16 17 18 19 20 21 22 23 24 25 26 27 28 29 30 31 32 33 34 35 36 37 38 39 40 41 42 43 44 45 46 47 48 49 50
187
ASUS43 KEAX 131310
RWREAX

WEATHER ROUNDUP FOR EASTERN KANSAS AND NORTHWEST MISSOURI
NATIONAL WEATHER SERVICE KANSAS CITY/PLEASANT HILL MO
700 AM CST SAT FEB 13 2016

KSZ040-057-103>105-MOZ028-029-037-043-131400-
...KANSAS CITY METROPOLITAN AREA...

CITY           SKY/WX    TMP DP  RH WIND       PRES   REMARKS
K.C. INTL      CLOUDY    16   4  59 E10       30.60S WCI   4
K.C. DOWNTOWN  CLOUDY    18   4  54 NE9       30.63S WCI   7
LEES SUMMIT    CLOUDY    16   3  56 NE10      30.60R WCI   4
OLATHE - IXD   CLOUDY    18   2  49 E6        30.61R WCI  10
OLATHE - OJC   CLOUDY    16  -1  47 NE8       30.59R WCI   5
LAWRENCE       CLOUDY    18   3  52 NE8       30.62R WCI   8

$$

MOZ001>008-011>017-020>025-030>033-038>040-044>046-053-054-131400-
...NORTHERN AND CENTRAL MISSOURI...

CITY           SKY/WX    TMP DP  RH WIND       PRES   REMARKS
ST. JOSEPH     CLOUDY    15   1  53 E7        30.64S WCI   5
MOSBY          CLOUDY    18   3  53 NE7       30.64S WCI   8
WARRENSBURG    CLOUDY    18   5  57 NE9       30.63R WCI   6
WHITEMAN AFB   CLOUDY    15   3  58 NE10      30.61S WCI   3
CLINTON          N/A     19   7  58 NE10      30.61F WCI   8
SEDALIA        CLOUDY    16   1  51 N9        30.64R WCI   4
WARSAW         NOT AVBL
CHILLICOTHE      N/A     11   0  61 NE3       30.67R
KIRKSVILLE     CLOUDY     7  -2  66 N5        30.64R WCI  -2

$$

MOZ041-047>049-056>058-063>065-088>090-097-131400-
...EASTERN AND SOUTHERN MISSOURI...

CITY           SKY/WX    TMP DP  RH WIND       PRES   REMARKS
ST. LOUIS INTL PTCLDY    12   1  61 N8        30.65R WCI   0
SPIRIT OF STL  PTCLDY    11   2  67 N5        30.65R WCI   3
COLUMBIA       CLOUDY    12   2  64 NE9       30.63R WCI   0
JEFFERSON CITY CLOUDY    14   2  58 NE3       30.66R
ROLLA          CLOUDY    14   3  61 N8        30.57R WCI   3
OSAGE BEACH    CLOUDY    18   1  49 NE7       30.60S WCI   8
SPRINGFIELD    CLOUDY    22   1  40 E9        30.52R WCI  12
BRANSON        CLOUDY    25   5  42 N7        30.53R WCI  17
JOPLIN         CLOUDY    24   7  48 NE8       30.54S WCI  15
WEST PLAINS    CLOUDY    21  -2  36 NE9       30.54R WCI  11

$$

IAZ060-094-KSZ022-034>040-054-083-096-NEZ052-066-093-131400-
...KANSAS...SOUTHEAST NEBRASKA AND IOWA...

CITY           SKY/WX    TMP DP  RH WIND       PRES   REMARKS
TOPEKA         CLOUDY    20   4  50 E9        30.60S WCI   9
MANHATTAN      CLOUDY    19   5  54 E12       30.56F WCI   7
EMPORIA        CLOUDY    20   6  55 NE12      30.53S WCI   8
CHANUTE        CLOUDY    22   5  48 NE7       30.55R WCI  13
WICHITA        CLOUDY    23  10  57 E12       30.48S WCI  12
OMAHA          CLOUDY    10   0  63 E8        30.62F WCI  -2
LINCOLN        CLOUDY    15   6  67 E7        30.56F WCI   5
FALLS CITY     CLOUDY    15   4  61 E8        30.59F WCI   4
LAMONI         CLOUDY     6  -2  69 NE3       30.62S
DES MOINES     CLOUDY     4  -5  66 CALM      30.63S

$$





USA.gov is the U.S. government's official web portal to all federal, state and local government web resources and services.